Hourly Data Report for June 12, 2021

WRIGLEY A
NORTHWEST TERRITORIES
Current Station Operator: NAVCAN

63°12'35.000" N
123°26'12.000" W
149.70 m
2204005
YWY

Download Data

Hourly Data (June 2021)
Hourly Data Report for June 12, 2021
TIME
LST
Temp Definition
°C
Dew Point Definition
°C
Rel Hum Definition
%
Precip. Amount Definition
mm

Wind Dir Definition
10's deg

Wind Spd Definition
km/h
Visibility Definition
km
Stn Press Definition
kPa
Hmdx Definition


Wind Chill Definition


Weather Definition


00:00 9.5 9.1 97 LegendMM 32 6 LegendMM 98.49     LegendNANA
01:00 9.3 9.1 99 LegendMM 31 10 LegendMM 98.42     LegendNANA
02:00 9.4 9.3 99 LegendMM 31 9 LegendMM 98.36     LegendNANA
03:00 9.6 9.3 98 LegendMM 31 8 LegendMM 98.30     LegendNANA
04:00 9.6 9.4 99 LegendMM 31 11 LegendMM 98.25     LegendNANA
05:00 9.9 9.5 98 LegendMM 31 9 LegendMM 98.24     LegendNANA
06:00 10.0 9.4 96 LegendMM 32 7 LegendMM 98.22     LegendNANA
07:00 9.7 9.5 98 LegendMM 31 11 LegendMM 98.20     LegendNANA
08:00 9.6 9.5 99 LegendMM 30 10 LegendMM 98.19     LegendNANA
09:00 10.3 9.6 95 LegendMM 32 9 LegendMM 98.21     LegendNANA
10:00 10.1 9.2 94 LegendMM 32 12 LegendMM 98.24     LegendNANA
11:00 10.6 9.4 92 LegendMM 35 10 LegendMM 98.27     LegendNANA
12:00 10.9 9.6 92 LegendMM 31 9 LegendMM 98.31     LegendNANA
13:00 11.9 9.7 86 LegendMM 29 13 LegendMM 98.34     LegendNANA
14:00 12.3 10.1 86 LegendMM 30 8 LegendMM 98.38     LegendNANA
15:00 12.7 9.7 81 LegendMM 28 9 LegendMM 98.42     LegendNANA
16:00 12.4 10.1 86 LegendMM 36 4 LegendMM 98.46     LegendNANA
17:00 12.2 10.8 91 LegendMM 6 1 LegendMM 98.51     LegendNANA
18:00 13.2 10.4 83 LegendMM 27 6 LegendMM 98.53     LegendNANA
19:00 13.4 9.6 77 LegendMM 35 10 LegendMM 98.57     LegendNANA
20:00 12.6 9.0 79 LegendMM 34 4 LegendMM 98.61     LegendNANA
21:00 11.4 9.2 86 LegendMM 34 3 LegendMM 98.64     LegendNANA
22:00 11.0 9.6 91 LegendMM 4 1 LegendMM 98.67     LegendNANA
23:00 10.4 9.5 94 LegendMM 30 5 LegendMM 98.69     LegendNANA

Notes on Data Quality.

Legend

  • E = Estimated
  • M = Missing
  • NA = Not Available*
  • [empty] = Indicates an unobserved value
Date modified: